Home > Time Zones > World Clock > Weather > U.S.A. > Gary > Past weeks

Flag for U.S.A. Weather past 2 weeks in Gary, Indiana, U.S.A.

Now
69 °F

Passing clouds.


Feels Like: 69 °F
Forecast: 48 / 69 °F
Wind: 5 mph from Southwest

Location: Lansing Municipal Airport

Current Time: May 30, 2015 at 12:39:47 AM

Latest Report: May 30, 2015 at 12:15 AM


Visibility: 10 mi

Pressure: 29.96 "Hg

Humidity: 79%

Dew point: 62 °F

Location of GaryLocation

Historic Weather in Gary — Graph

°F

Gary temperature yesterday

Maximum temperature yesterday: 82 °F (at 5:55 PM)
Minimum temperature yesterday: 65 °F (at 4:15 AM)
Average temperature yesterday: 73 °F

Past Weeks' High & Low Weather Summary

 TemperatureHumidityPressure
High82 °F (May 28, 3:35 PM)94% (May 28, 5:15 AM)30.36 "Hg (May 28, 5:15 AM)
Low40 °F (May 19, 10:15 PM)23% (May 21, 5:55 PM)29.80 "Hg (May 26, 4:15 PM)
Average64 °F65%30.07 "Hg
* Reported May 14 11:15 PM — May 29 11:15 PM, Gary, Weather by CustomWeather, © 2015

Note: Actual official high and low records may vary slightly from our data, if they occured in-between our weather recording intervals... More about our weather records

Advertising

Gary weather history for previous 24 hours

 ConditionsComfort  
Time TempWeatherWind HumidityBarometerVisibility
11:15 PM
Fri, May 29
70 °FClear.7 mph78%29.97 "Hg10 mi
10:55 PM70 °FClear.8 mph79%29.96 "Hg10 mi
10:15 PM70 °FClear.5 mph79%29.96 "Hg10 mi
9:55 PM70 °FClear.6 mph77%29.95 "Hg10 mi
9:35 PM71 °FClear.7 mph74%29.95 "Hg10 mi
9:15 PM71 °FClear.9 mph74%29.95 "Hg10 mi
8:55 PM72 °FClear.8 mph71%29.95 "Hg10 mi
8:35 PM72 °FClear.10 mph69%29.95 "Hg10 mi
8:15 PM73 °FClear.13 mph70%29.95 "Hg10 mi
7:55 PM73 °FPartly sunny.9 mph74%29.94 "Hg10 mi
7:35 PM73 °FThunderstorms. More clouds than sun.13 mph74%29.94 "Hg10 mi
7:15 PM77 °FRain. Overcast.23 mph62%29.94 "Hg10 mi
6:55 PM81 °FMostly cloudy.10 mph50%29.92 "Hg10 mi
6:35 PM81 °FCloudy.10 mph48%29.92 "Hg10 mi
6:15 PM82 °FMore clouds than sun.14 mph46%29.91 "Hg10 mi
5:55 PM82 °FBroken clouds.14 mph46%29.91 "Hg10 mi
5:15 PM81 °FLight rain. Overcast.12 mph50%29.91 "Hg7 mi
4:55 PM81 °FMostly cloudy.12 mph49%29.92 "Hg10 mi
4:15 PM81 °FPartly sunny.16 mph53%29.93 "Hg10 mi
3:55 PM81 °FScattered clouds.15 mph52%29.94 "Hg10 mi
3:35 PM81 °FSunny.16 mph54%29.94 "Hg10 mi
3:15 PM81 °FSunny.16 mph55%29.96 "Hg10 mi
2:55 PM81 °FScattered clouds.17 mph50%29.96 "Hg10 mi
2:35 PM82 °FPartly sunny.13 mph52%29.96 "Hg10 mi
2:15 PM79 °FBroken clouds.15 mph58%29.98 "Hg10 mi
1:55 PM77 °FMore clouds than sun.13 mph61%29.99 "Hg10 mi
1:35 PM78 °FBroken clouds.15 mph59%29.99 "Hg10 mi
1:15 PM78 °FScattered clouds.7 mph69%30.00 "Hg10 mi
12:55 PM76 °FScattered clouds.No wind73%30.01 "Hg10 mi
12:35 PM74 °FBroken clouds.7 mph78%30.02 "Hg10 mi
12:15 PM71 °FLight rain. Cloudy.12 mph81%30.04 "Hg10 mi
11:55 AM73 °FHeavy rain. Cloudy.14 mph76%30.03 "Hg10 mi
11:35 AM75 °FRain. Partly sunny.16 mph65%30.03 "Hg7 mi
11:15 AM81 °FBroken clouds.17 mph54%30.03 "Hg10 mi
10:55 AM78 °FScattered clouds.14 mph60%30.04 "Hg10 mi
10:35 AM80 °FScattered clouds.14 mph60%30.04 "Hg10 mi
10:15 AM79 °FScattered clouds.15 mph60%30.05 "Hg10 mi
9:55 AM78 °FScattered clouds.13 mph62%30.05 "Hg10 mi
9:35 AM77 °FSunny.13 mph66%30.06 "Hg10 mi
9:15 AM76 °FSunny.12 mph68%30.06 "Hg10 mi
8:55 AM75 °FSunny.10 mph71%30.06 "Hg10 mi
8:35 AM74 °FScattered clouds.9 mph74%30.06 "Hg10 mi
8:15 AM73 °FScattered clouds.12 mph74%30.06 "Hg10 mi
7:55 AM72 °FScattered clouds.7 mph77%30.06 "Hg10 mi
7:35 AM71 °FSunny.8 mph79%30.05 "Hg7 mi
7:15 AM70 °FSunny.10 mph81%30.05 "Hg7 mi
6:55 AM68 °FSunny.8 mph82%30.04 "Hg7 mi
6:35 AM68 °FSunny.7 mph84%30.04 "Hg5 mi
6:15 AM67 °FSunny.5 mph86%30.04 "Hg5 mi
5:55 AM66 °FFog.5 mph87%30.04 "Hg5 mi
5:35 AM66 °FSunny.3 mph86%30.04 "Hg7 mi
5:15 AM66 °FClear.3 mph86%30.03 "Hg10 mi
4:55 AM66 °FClear.3 mph85%30.04 "Hg10 mi
4:35 AM66 °FClear.6 mph86%30.04 "Hg10 mi
4:15 AM65 °FClear.6 mph87%30.05 "Hg10 mi
3:55 AM66 °FClear.3 mph85%30.06 "Hg10 mi
3:35 AM66 °FPassing clouds.No wind84%30.06 "Hg10 mi
3:15 AM67 °FPassing clouds.3 mph83%30.07 "Hg10 mi
2:55 AM68 °FMostly cloudy.3 mph84%30.06 "Hg10 mi
2:35 AM68 °FOvercast.3 mph83%30.06 "Hg10 mi
2:15 AM70 °FLight rain. Mostly cloudy.9 mph76%30.06 "Hg10 mi
1:55 AM70 °FPartly cloudy.9 mph64%30.07 "Hg10 mi
1:35 AM69 °FPassing clouds.7 mph65%30.07 "Hg10 mi
1:15 AM69 °FPassing clouds.8 mph63%30.08 "Hg10 mi
12:55 AM70 °FPartly cloudy.5 mph60%30.08 "Hg10 mi
12:35 AM69 °FPartly cloudy.6 mph63%30.07 "Hg10 mi
12:15 AM68 °FClear.5 mph64%30.07 "Hg10 mi
Weather by CustomWeather, © 2015

See weather overviewHow to use our weather pages